Location: Chrome
(40.5765°N, 74.2163°W)
Time: 00:20:24
(UTC+00:00)

SL-16 R/B - Pass Details

Date: 06 December 2019
Orbit: 843 x 845 km, 71.0° (Epoch: 18 January)

Event Time Altitude Azimuth Distance (km) Brightness Sun altitude
Rises 22:00:19 0° 247° (WSW) 3,393 8.2 -6.0°
Reaches altitude 10° 22:03:31 10° 266° (W) 2,463 6.0 -6.6°
Maximum altitude 22:07:24 19° 309° (NW) 1,928 4.4 -7.2°
Drops below altitude 10° 22:11:18 10° 353° (N) 2,473 4.5 -7.9°
Sets 22:14:33 0° 12° (NNE) 3,413 5.0 -8.5°
